User: anonymous
Location: Unspecified
(0.0000°N, 0.0000°E)
Time: 07:52:41
(UTC+00:00)
Language:

ISS - Orbit

View from above orbital plane
View from above orbital plane
View from above satellite
View from above satellite

Ground track
Ground track

The orbit data is extracted from the following two-line orbital elements,

1 25544U 98067A   14234.24777153  .00010791  00000-0  19566-3 0  9415
2 25544 051.6458 132.1367 0004584 045.9220 100.8748 15.50163229901571
Epoch (UTC): 22 August 2014 05:56:47
Eccentricity: 0.0004584
inclination: 51.6458°
perigee height: 413 km
apogee height: 419 km
right ascension of ascending node: 132.1367°
argument of perigee: 45.9220°
revolutions per day: 15.50163229
mean anomaly at epoch: 100.8748°
orbit number at epoch: 90157

The dashed part of the orbit path shows where the satellite is in the earth's shadow,  

DLR